| time (UTC) | temp F | wind direction | speed MPH | gust MPH | rain 1hr in | rain 24hr in | rain mn in | humidity % | barometer mb |
| 20260506080309 | 64 | 195 | 2.0 | 9.0 | 0.00 | 0.00 | 0.00 | 74 | 1009.9 |
| 20260506073058 | 64 | 172 | 3.0 | 9.0 | 0.00 | 0.00 | 0.00 | 73 | 1009.9 |
| 20260506071511 | 65 | 100 | 2.0 | 10.0 | 0.00 | 0.00 | 0.00 | 72 | 1010.0 |
| 20260506061545 | 66 | 203 | 2.0 | 8.0 | 0.00 | 0.00 | 0.00 | 69 | 1009.9 |
| 20260506060318 | 67 | 216 | 3.0 | 13.0 | 0.00 | 0.00 | 0.00 | 68 | 1010.0 |
| 20260506044529 | 67 | 247 | 3.0 | 11.0 | 0.00 | 0.00 | 0.00 | 66 | 1010.5 |
| 20260506043040 | 67 | 204 | 2.0 | 11.0 | 0.00 | 0.00 | 0.00 | 65 | 1010.5 |
| 20260506041607 | 67 | 161 | 3.0 | 11.0 | 0.00 | 0.00 | 0.00 | 64 | 1010.4 |
| 20260506040309 | 68 | 191 | 5.0 | 10.0 | 0.00 | 0.00 | 0.00 | 63 | 1010.5 |
| 20260506040020 | 68 | 284 | 2.0 | 10.0 | 0.00 | 0.00 | 0.00 | 63 | 1010.4 |
| 20260506034532 | 68 | 148 | 3.0 | 13.0 | 0.00 | 0.00 | 0.00 | 62 | 1010.5 |
| 20260506033030 | 69 | 202 | 3.0 | 12.0 | 0.00 | 0.00 | 0.00 | 60 | 1010.5 |
| 20260506031536 | 69 | 218 | 5.0 | 15.0 | 0.00 | 0.00 | 0.00 | 59 | 1010.3 |
| 20260506030050 | 69 | 231 | 3.0 | 14.0 | 0.00 | 0.00 | 0.00 | 58 | 1010.3 |
| 20260506024600 | 69 | 154 | 5.0 | 12.0 | 0.00 | 0.00 | 0.00 | 58 | 1010.3 |
| 20260506023019 | 69 | 195 | 4.0 | 11.0 | 0.00 | 0.00 | 0.00 | 57 | 1010.4 |
| 20260506021532 | 69 | 108 | 4.0 | 12.0 | 0.00 | 0.00 | 0.00 | 57 | 1010.3 |
| 20260506020309 | 70 | 113 | 5.0 | 12.0 | 0.00 | 0.00 | 0.00 | 57 | 1010.3 |
| 20260506020039 | 70 | 161 | 4.0 | 14.0 | 0.00 | 0.00 | 0.00 | 57 | 1010.2 |
| 20260506014541 | 70 | 169 | 5.0 | 16.0 | 0.00 | 0.00 | 0.00 | 56 | 1010.2 |
| 20260506013106 | 71 | 178 | 2.0 | 11.0 | 0.00 | 0.00 | 0.00 | 56 | 1010.0 |
| 20260506011510 | 71 | 234 | 3.0 | 11.0 | 0.00 | 0.00 | 0.00 | 54 | 1009.9 |
| 20260506010015 | 72 | 229 | 5.0 | 11.0 | 0.00 | 0.00 | 0.00 | 53 | 1009.7 |
| 20260506004523 | 73 | 103 | 6.0 | 14.0 | 0.00 | 0.00 | 0.00 | 50 | 1009.5 |
| 20260506003055 | 76 | 160 | 5.0 | 14.0 | 0.00 | 0.00 | 0.00 | 41 | 1009.2 |
| 20260506001502 | 77 | 174 | 3.0 | 12.0 | 0.00 | 0.00 | 0.00 | 40 | 1009.0 |
| 20260506000315 | 78 | 210 | 5.0 | 15.0 | 0.00 | 0.00 | 0.00 | 40 | 1009.0 |
| 20260506000058 | 77 | 236 | 3.0 | 19.0 | 0.00 | 0.00 | 0.00 | 40 | 1008.9 |
| 20260505234519 | 78 | 120 | 5.0 | 13.0 | 0.00 | 0.00 | 0.00 | 38 | 1008.8 |
| 20260505233037 | 79 | 188 | 4.0 | 15.0 | 0.00 | 0.00 | 0.00 | 36 | 1008.7 |
| 20260505231603 | 80 | 146 | 3.0 | 14.0 | 0.00 | 0.00 | 0.00 | 34 | 1008.3 |
| 20260505230055 | 80 | 222 | 7.0 | 17.0 | 0.00 | 0.00 | 0.00 | 31 | 1008.2 |
| 20260505224559 | 81 | 156 | 7.0 | 14.0 | 0.00 | 0.00 | 0.00 | 29 | 1008.1 |
| 20260505223016 | 82 | 217 | 6.0 | 18.0 | 0.00 | 0.00 | 0.00 | 27 | 1008.0 |
| 20260505221526 | 82 | 96 | 7.0 | 18.0 | 0.00 | 0.00 | 0.00 | 30 | 1007.9 |
| 20260505220330 | 83 | 216 | 5.0 | 19.0 | 0.00 | 0.00 | 0.00 | 31 | 1007.7 |
| 20260505220022 | 83 | 146 | 7.0 | 19.0 | 0.00 | 0.00 | 0.00 | 31 | 1007.6 |
| 20260505214614 | 83 | 230 | 6.0 | 17.0 | 0.00 | 0.00 | 0.00 | 32 | 1007.6 |
| 20260505213009 | 83 | 218 | 5.0 | 17.0 | 0.00 | 0.00 | 0.00 | 31 | 1007.5 |
| 20260505211521 | 84 | 144 | 7.0 | 19.0 | 0.00 | 0.00 | 0.00 | 31 | 1007.5 |
| 20260505210042 | 84 | 212 | 7.0 | 19.0 | 0.00 | 0.00 | 0.00 | 30 | 1007.5 |
| 20260505204549 | 85 | 224 | 6.0 | 17.0 | 0.00 | 0.00 | 0.00 | 30 | 1007.3 |
| 20260505203004 | 84 | 231 | 6.0 | 15.0 | 0.00 | 0.00 | 0.00 | 30 | 1007.5 |
| 20260505201529 | 85 | 225 | 6.0 | 16.0 | 0.00 | 0.00 | 0.00 | 29 | 1007.6 |
| 20260505200321 | 86 | 221 | 6.0 | 17.0 | 0.00 | 0.00 | 0.00 | 28 | 1007.7 |
| 20260505200045 | 85 | 85 | 4.0 | 17.0 | 0.00 | 0.00 | 0.00 | 30 | 1007.6 |
| 20260505194557 | 85 | 197 | 6.0 | 26.0 | 0.00 | 0.00 | 0.00 | 30 | 1007.7 |
| 20260505193013 | 85 | 217 | 5.0 | 15.0 | 0.00 | 0.00 | 0.00 | 31 | 1007.9 |
| 20260505191517 | 85 | 148 | 5.0 | 13.0 | 0.00 | 0.00 | 0.00 | 31 | 1008.2 |
| 20260505190029 | 85 | 188 | 7.0 | 15.0 | 0.00 | 0.00 | 0.00 | 32 | 1008.5 |
| 20260505184557 | 84 | 174 | 5.0 | 19.0 | 0.00 | 0.00 | 0.00 | 34 | 1008.7 |
| 20260505183003 | 83 | 214 | 6.0 | 15.0 | 0.00 | 0.00 | 0.00 | 35 | 1008.8 |
| 20260505181525 | 84 | 224 | 6.0 | 14.0 | 0.00 | 0.00 | 0.00 | 35 | 1009.0 |
| 20260505180320 | 84 | 205 | 6.0 | 15.0 | 0.00 | 0.00 | 0.00 | 36 | 1009.1 |
| 20260505180035 | 84 | 223 | 5.0 | 15.0 | 0.00 | 0.00 | 0.00 | 35 | 1009.1 |
| 20260505174545 | 83 | 164 | 6.0 | 13.0 | 0.00 | 0.00 | 0.00 | 36 | 1009.2 |
| 20260505173054 | 84 | 240 | 5.0 | 13.0 | 0.00 | 0.00 | 0.00 | 36 | 1009.5 |
| 20260505171506 | 82 | 167 | 4.0 | 14.0 | 0.00 | 0.00 | 0.00 | 38 | 1009.5 |
| 20260505170021 | 82 | 178 | 4.0 | 12.0 | 0.00 | 0.00 | 0.00 | 39 | 1009.7 |
| 20260505164540 | 81 | 200 | 6.0 | 13.0 | 0.00 | 0.00 | 0.00 | 39 | 1009.9 |
| 20260505163048 | 81 | 166 | 4.0 | 12.0 | 0.00 | 0.00 | 0.00 | 40 | 1010.0 |
| 20260505161603 | 80 | 219 | 5.0 | 12.0 | 0.00 | 0.00 | 0.00 | 40 | 1010.3 |
| 20260505160259 | 80 | 195 | 3.0 | 11.0 | 0.00 | 0.00 | 0.00 | 41 | 1010.5 |
| 20260505153016 | 78 | 218 | 2.0 | 7.0 | 0.00 | 0.00 | 0.00 | 44 | 1010.7 |
| 20260505151534 | 77 | 174 | 4.0 | 8.0 | 0.00 | 0.00 | 0.00 | 45 | 1010.6 |
| 20260505140321 | 72 | 216 | 3.0 | 10.0 | 0.00 | 0.00 | 0.00 | 53 | 1011.6 |
| 20260505124543 | 67 | 221 | 5.0 | 10.0 | 0.00 | 0.00 | 0.00 | 59 | 1011.3 |
| 20260505123052 | 67 | 133 | 2.0 | 8.0 | 0.00 | 0.00 | 0.00 | 60 | 1011.2 |
| 20260505121507 | 66 | 255 | 3.0 | 7.0 | 0.00 | 0.00 | 0.00 | 61 | 1011.3 |
| 20260505120302 | 66 | 128 | 2.0 | 10.0 | 0.00 | 0.00 | 0.00 | 63 | 1011.2 |
| 20260505120100 | 65 | 152 | 1.0 | 10.0 | 0.00 | 0.00 | 0.00 | 63 | 1011.2 |
| 20260505114505 | 63 | 192 | 1.0 | 8.0 | 0.00 | 0.00 | 0.00 | 66 | 1011.3 |
| 20260505113024 | 62 | 202 | 2.0 | 5.0 | 0.00 | 0.00 | 0.00 | 68 | 1011.3 |
| 20260505111538 | 60 | 276 | 0.0 | 3.0 | 0.00 | 0.00 | 0.00 | 70 | 1011.4 |
| 20260505101554 | 57 | 245 | 0.0 | 1.0 | 0.00 | 0.00 | 0.00 | 74 | 1011.3 |
| 20260505100340 | 57 | 239 | 0.0 | 2.0 | 0.00 | 0.00 | 0.00 | 74 | 1011.1 |
| 20260505100044 | 57 | 198 | 0.0 | 1.0 | 0.00 | 0.00 | 0.00 | 74 | 1010.9 |
| 20260505094552 | 57 | 214 | 0.0 | 2.0 | 0.00 | 0.00 | 0.00 | 73 | 1010.5 |
| 20260505093058 | 57 | 223 | 0.0 | 4.0 | 0.00 | 0.00 | 0.00 | 73 | 1010.2 |
| 20260505091511 | 57 | 231 | 0.0 | 2.0 | 0.00 | 0.00 | 0.00 | 73 | 1010.2 |
| 20260505090022 | 57 | 221 | 0.0 | 4.0 | 0.00 | 0.00 | 0.00 | 73 | 1010.3 |
| 20260505084527 | 57 | 285 | 0.0 | 3.0 | 0.00 | 0.00 | 0.00 | 72 | 1010.3 |
| 20260505083035 | 57 | 156 | 0.0 | 4.0 | 0.00 | 0.00 | 0.00 | 71 | 1010.3 |
| 20260505081605 | 57 | 224 | 0.0 | 4.0 | 0.00 | 0.00 | 0.00 | 71 | 1010.3 |